• en France
  • Liste des pays
  • À 7 jours
  • Température de l'eau
  • Carte satellitaire
  • Carte météo
  • Widgets météo
  • user-avatar
    Se connecter

    Météo par heure à Woznice

    Ce jour, 19 Août, Dimanche

    Heure Température Précipitation Vent Pression Humidité
    00:00 +16°C° 0 mm 1 m/s 754 mmHg 92%
    01:00 +15°C° 0 mm 1 m/s 754 mmHg 90%
    02:00 +15°C° 0 mm 1 m/s 754 mmHg 89%
    03:00 +15°C° 0 mm 1 m/s 754 mmHg 88%
    04:00 +15°C° 0 mm 1 m/s 754 mmHg 86%
    05:00 +18°C° 0 mm 1 m/s 754 mmHg 84%
    06:00 +19°C° 0 mm 1 m/s 754 mmHg 82%
    07:00 +19°C° 0 mm 2 m/s 754 mmHg 79%
    08:00 +21°C° 0 mm 2 m/s 754 mmHg 73%
    09:00 +23°C° 0 mm 2 m/s 754 mmHg 67%
    10:00 +25°C° 0 mm 2 m/s 754 mmHg 61%
    11:00 +26°C° 0 mm 2 m/s 754 mmHg 58%
    12:00 +27°C° 0 mm 2 m/s 754 mmHg 54%
    13:00 +27°C° 0 mm 3 m/s 753 mmHg 51%
    14:00 +27°C° 0 mm 2 m/s 753 mmHg 52%
    15:00 +27°C° 0 mm 2 m/s 753 mmHg 53%
    16:00 +27°C° 0 mm 2 m/s 753 mmHg 54%
    17:00 +25°C° 0 mm 2 m/s 753 mmHg 60%
    18:00 +24°C° 0 mm 1 m/s 752 mmHg 66%
    19:00 +22°C° 0 mm 1 m/s 752 mmHg 72%
    20:00 +21°C° 0 mm 1 m/s 752 mmHg 75%
    21:00 +20°C° 0 mm 1 m/s 752 mmHg 78%
    22:00 +20°C° 0 mm 1 m/s 752 mmHg 80%
    23:00 +19°C° 0 mm 1 m/s 752 mmHg 81%

    Demain, 20 Août, Lundi

    Heure Température Précipitation Vent Pression Humidité
    00:00 +18°C° 0 mm 2 m/s 752 mmHg 81%
    01:00 +18°C° 0 mm 2 m/s 751 mmHg 81%
    02:00 +18°C° 0 mm 2 m/s 751 mmHg 81%
    03:00 +18°C° 0 mm 2 m/s 751 mmHg 81%
    04:00 +17°C° 0 mm 2 m/s 750 mmHg 81%
    05:00 +19°C° 0 mm 3 m/s 750 mmHg 77%
    06:00 +20°C° 0 mm 3 m/s 750 mmHg 73%
    07:00 +21°C° 0 mm 3 m/s 750 mmHg 69%
    08:00 +23°C° 0 mm 4 m/s 750 mmHg 62%
    09:00 +26°C° 0 mm 4 m/s 749 mmHg 55%
    10:00 +28°C° 0 mm 5 m/s 749 mmHg 48%
    11:00 +28°C° 0 mm 5 m/s 749 mmHg 48%
    12:00 +29°C° 0 mm 6 m/s 749 mmHg 47%
    13:00 +30°C° 0 mm 6 m/s 748 mmHg 46%
    14:00 +29°C° 0 mm 6 m/s 748 mmHg 50%
    15:00 +28°C° 0 mm 5 m/s 748 mmHg 53%
    16:00 +28°C° 0 mm 5 m/s 748 mmHg 57%
    17:00 +26°C° 0,1 mm 4 m/s 748 mmHg 65%
    18:00 +23°C° 0,1 mm 4 m/s 748 mmHg 72%
    19:00 +21°C° 0,1 mm 3 m/s 748 mmHg 80%
    20:00 +20°C° 0 mm 3 m/s 748 mmHg 84%
    21:00 +19°C° 0 mm 3 m/s 748 mmHg 87%
    22:00 +18°C° 0 mm 3 m/s 748 mmHg 90%
    23:00 +17°C° 0 mm 4 m/s 748 mmHg 88%

    Après-demain, 21 Août, Mardi

    Heure Température Précipitation Vent Pression Humidité
    00:00 +15°C° 0 mm 4 m/s 748 mmHg 86%
    01:00 +14°C° 0 mm 4 m/s 748 mmHg 83%
    02:00 +14°C° 0 mm 4 m/s 749 mmHg 84%
    03:00 +14°C° 0 mm 4 m/s 749 mmHg 84%
    04:00 +13°C° 0 mm 4 m/s 749 mmHg 84%
    05:00 +15°C° 0 mm 4 m/s 750 mmHg 82%
    06:00 +17°C° 0 mm 4 m/s 750 mmHg 81%
    07:00 +17°C° 0 mm 5 m/s 751 mmHg 79%
    08:00 +19°C° 0,1 mm 4 m/s 751 mmHg 74%
    09:00 +20°C° 0,1 mm 4 m/s 752 mmHg 68%
    10:00 +21°C° 0,1 mm 4 m/s 752 mmHg 63%
    11:00 +21°C° 0,1 mm 4 m/s 752 mmHg 61%
    12:00 +22°C° 0,1 mm 4 m/s 752 mmHg 59%
    13:00 +22°C° 0,1 mm 4 m/s 753 mmHg 57%
    14:00 +22°C° 0 mm 4 m/s 753 mmHg 58%
    15:00 +21°C° 0 mm 5 m/s 753 mmHg 58%
    16:00 +21°C° 0 mm 5 m/s 753 mmHg 58%
    17:00 +19°C° 0 mm 4 m/s 753 mmHg 64%
    18:00 +18°C° 0 mm 3 m/s 754 mmHg 70%
    19:00 +16°C° 0 mm 2 m/s 754 mmHg 76%
    20:00 +15°C° 0 mm 2 m/s 754 mmHg 78%
    21:00 +14°C° 0 mm 2 m/s 755 mmHg 81%
    22:00 +13°C° 0 mm 2 m/s 755 mmHg 84%
    23:00 +13°C° 0 mm 1 m/s 755 mmHg 85%

    22 Août, Mercredi

    Heure Température Précipitation Vent Pression Humidité
    00:00 +12°C° 0 mm 1 m/s 756 mmHg 87%
    01:00 +12°C° 0 mm 1 m/s 756 mmHg 88%
    02:00 +11°C° 0 mm 1 m/s 756 mmHg 88%
    03:00 +11°C° 0 mm 1 m/s 756 mmHg 88%
    04:00 +11°C° 0 mm 1 m/s 756 mmHg 88%
    05:00 +12°C° 0 mm 1 m/s 756 mmHg 82%
    06:00 +14°C° 0 mm 1 m/s 756 mmHg 76%
    07:00 +15°C° 0 mm 1 m/s 757 mmHg 69%
    08:00 +18°C° 0 mm 1 m/s 757 mmHg 62%
    09:00 +20°C° 0 mm 1 m/s 757 mmHg 55%
    10:00 +20°C° 0 mm 2 m/s 756 mmHg 48%
    11:00 +21°C° 0 mm 2 m/s 756 mmHg 45%
    12:00 +23°C° 0 mm 2 m/s 756 mmHg 42%
    13:00 +24°C° 0 mm 2 m/s 755 mmHg 39%
    14:00 +24°C° 0 mm 2 m/s 755 mmHg 40%
    15:00 +24°C° 0 mm 2 m/s 755 mmHg 41%
    16:00 +24°C° 0 mm 2 m/s 755 mmHg 42%
    17:00 +21°C° 0 mm 2 m/s 754 mmHg 47%
    18:00 +20°C° 0 mm 2 m/s 754 mmHg 52%
    19:00 +18°C° 0 mm 2 m/s 754 mmHg 57%
    20:00 +17°C° 0 mm 2 m/s 754 mmHg 58%
    21:00 +16°C° 0 mm 2 m/s 754 mmHg 59%
    22:00 +16°C° 0 mm 3 m/s 754 mmHg 59%
    23:00 +16°C° 0 mm 3 m/s 754 mmHg 61%

    23 Août, Jeudi

    Heure Température Précipitation Vent Pression Humidité
    00:00 +14°C° 0 mm 3 m/s 754 mmHg 62%
    01:00 +14°C° 0 mm 3 m/s 753 mmHg 64%
    02:00 +14°C° 0 mm 3 m/s 753 mmHg 68%
    03:00 +13°C° 0 mm 3 m/s 753 mmHg 72%
    04:00 +13°C° 0 mm 3 m/s 753 mmHg 75%
    05:00 +16°C° 0 mm 3 m/s 753 mmHg 75%
    06:00 +17°C° 0 mm 3 m/s 753 mmHg 75%
    07:00 +19°C° 0 mm 4 m/s 752 mmHg 74%
    08:00 +21°C° 0 mm 4 m/s 752 mmHg 69%
    09:00 +22°C° 0 mm 4 m/s 752 mmHg 63%
    10:00 +25°C° 0 mm 4 m/s 752 mmHg 58%
    11:00 +26°C° 0 mm 4 m/s 752 mmHg 55%
    12:00 +27°C° 0 mm 4 m/s 751 mmHg 52%
    13:00 +28°C° 0 mm 4 m/s 751 mmHg 49%
    14:00 +28°C° 0 mm 3 m/s 751 mmHg 49%
    15:00 +28°C° 0 mm 3 m/s 750 mmHg 50%
    16:00 +27°C° 0 mm 3 m/s 750 mmHg 50%
    17:00 +26°C° 0 mm 3 m/s 750 mmHg 56%
    18:00 +24°C° 0 mm 3 m/s 749 mmHg 61%
    19:00 +21°C° 0 mm 3 m/s 749 mmHg 66%
    20:00 +20°C° 0 mm 3 m/s 749 mmHg 68%
    21:00 +20°C° 0 mm 3 m/s 749 mmHg 69%
    22:00 +19°C° 0 mm 3 m/s 749 mmHg 71%
    23:00 +19°C° 0 mm 3 m/s 748 mmHg 75%

    24 Août, Vendredi

    Heure Température Précipitation Vent Pression Humidité
    00:00 +18°C° 0 mm 3 m/s 748 mmHg 78%
    01:00 +18°C° 0 mm 3 m/s 748 mmHg 82%
    02:00 +18°C° 0 mm 3 m/s 748 mmHg 85%
    03:00 +18°C° 0 mm 3 m/s 747 mmHg 87%
    04:00 +17°C° 0 mm 3 m/s 747 mmHg 90%
    05:00 +18°C° 0 mm 3 m/s 747 mmHg 87%
    06:00 +19°C° 0 mm 4 m/s 747 mmHg 83%
    07:00 +20°C° 0 mm 4 m/s 746 mmHg 79%
    08:00 +22°C° 0 mm 4 m/s 746 mmHg 72%
    09:00 +25°C° 0 mm 4 m/s 746 mmHg 64%
    10:00 +27°C° 0 mm 5 m/s 745 mmHg 57%
    11:00 +28°C° 0 mm 5 m/s 745 mmHg 54%
    12:00 +30°C° 0 mm 5 m/s 744 mmHg 50%
    13:00 +32°C° 0 mm 5 m/s 744 mmHg 47%
    14:00 +30°C° 0 mm 5 m/s 743 mmHg 49%
    15:00 +30°C° 0 mm 4 m/s 743 mmHg 52%
    16:00 +29°C° 0 mm 4 m/s 742 mmHg 54%
    17:00 +29°C° 0 mm 4 m/s 742 mmHg 56%
    18:00 +28°C° 0 mm 4 m/s 742 mmHg 57%
    19:00 +27°C° 0 mm 4 m/s 742 mmHg 58%
    20:00 +25°C° 1,7 mm 4 m/s 742 mmHg 69%
    21:00 +22°C° 1,7 mm 4 m/s 742 mmHg 80%
    22:00 +20°C° 1,7 mm 3 m/s 743 mmHg 91%
    23:00 +19°C° 0,3 mm 3 m/s 743 mmHg 92%
    Voir plus